星链-32663 (STARLINK-32663)

导读

STARLINK-32663是美国SpaceX公司星链星座的成员卫星,于2024年12月4日发射。星链星座旨在为全球提供高速宽带互联网服务,该卫星采用平板设计,搭载Ku和Ka波段通信载荷,配备氪工质霍尔推进器,具备自主避撞能力,运行在低地球轨道,设计寿命5-7年,退役后会主动离轨再入大气层烧毁,减少太空垃圾威胁。

基本信息
目录编号:
62197
目录名称:
STARLINK-32663
国际标识:
2024-229F
轨道中心:
EARTH
卫星名称:
星链-32663
卫星全名:
星链-32663 (STARLINK-32663)
卫星状态:
在轨 (已飞行639 天)
发射日期:
2024-12-04 UTC
国别 :
美国 (US)
星等 :
--
轨道信息
数据来源 国际轨道数据
星历时间: 2026-09-03T15:41:41+0800
21小时前
查看轨道信息
半长轴: 6861.158km
偏心率: 0.0001323
轨道倾角: 43.001°
近地点辐角 274.686°
升交点赤经 347.899°
平近点角 85.384°
近地点: 482.113km
远地点: 483.929km
周期: 94.266分钟
每日圈数: 15.275896
详细信息
固有亮度:
5
最大亮度:
2.5
卫星平台:
Starlink V1.0
覆盖范围:
全球
运营商:
太空探索技术公司
运营商所在国:
美国
制造商(研发单位):
太空探索技术公司
制造商所在国:
美国
使用方式:
暂无
卫星简介
Starlink 计划是 SpaceX 推出的全球卫星互联网项目,通过发射低轨道卫星,为全球尤其是偏远地区提供高速、低延迟的互联网服务。自 2019 年起,Starlink 已部署数千颗卫星,旨在缩小全球数字鸿沟,推动互联网普及。该项目还为军事、航空等行业提供通信支持,带来广泛经济效益。
2D轨道图
3D轨道图
轨道高度分析图
轨道倾角分析图
轨道综合分析图
查看轨道综合分析图
交会数据列表
事件ID 空间交会对象 最接近时刻(TCA) 交会距离 交会风险概率(CRP) 交会风险指数(CRI) 操作
CDM_260905-071705-955106-219721
2026-09-05T
07:17:05+0000
0.698 km
远距离
4.784887E-5 中风险 0.69
CDM_260904-191705-651706-219721
2026-09-04T
19:17:46+0000
0.892 km
远距离
1.896316E-5 中风险 0.61
CDM_260904-205105-651706-219721
2026-09-04T
20:51:55+0000
1.038 km
极远距离
1.126688E-5 中风险 0.56
CDM_260905-054205-955106-219721
2026-09-05T
05:42:56+0000
1.840 km
极远距离
2.046229E-6 低风险 0.41
CDM_260830-175305-247906-219721
2026-08-30T
17:53:00+0000
1.536 km
极远距离
1.985044E-6 低风险 0.41
CDM_260905-085105-955106-219721
2026-09-05T
08:51:14+0000
2.670 km
极远距离
9.485203E-7 极低风险 0.35
CDM_260904-174305-651706-219721
2026-09-04T
17:43:37+0000
2.770 km
极远距离
8.125451E-7 极低风险 0.33
CDM_260904-222605-651706-219721
2026-09-04T
22:26:04+0000
2.987 km
极远距离
7.426404E-7 极低风险 0.32